Regional Weather Roundup
Issued by NWS

Home | Current Version | Previous Version | Graphics & Text | Print | Product List | Glossary On
Versions: 1 2 3 4 5 6 7 8 9 10 11 12 13 14 15 16 17 18 19 20 21 22 23 24 25 26 27 28 29 30 31 32 33 34 35 36 37 38 39 40 41 42 43 44 45 46 47 48 49 50
000
ASUS45 KSLC 240210
RWRUT

UTAH REGIONAL WEATHER ROUNDUP
NATIONAL WEATHER SERVICE SALT LAKE CITY UT
700 PM MST SUN NOV 23 2014

UTZ001>011-023>025-240300-

NORTHERN UTAH

CITY           SKY/WX    TMP DP  RH WIND       PRES   REMARKS
BRIGHAM CITY   CLOUDY    35  26  69 CALM      30.23S
HILL AFB       PTCLDY    31  23  73 S8        30.22S WCI  24
LOGAN          CLOUDY    34  24  67 E5        30.22R WCI  30
OGDEN          PTCLDY    32  23  69 S6        30.22R WCI  26
PROVO AIRPORT  MOCLDY    34  25  69 VRB3      30.26R
SALT LAKE CITY CLOUDY    37  24  59 SW3       30.23S
VERNAL         CLEAR     32   5  32 W5        30.08R WCI  27
WENDOVER       PTCLDY    36  19  51 NW8       30.25R WCI  29
HEBER CITY     CLOUDY    28  19  69 S5        30.20S WCI  23
WEST JORDAN    CLOUDY    36  27  69 SW6       30.24S WCI  31

$$

UTZ012>022-026-027-240300-

SOUTHERN/CENTRAL UTAH

CITY           SKY/WX    TMP DP  RH WIND       PRES   REMARKS
BLANDING       CLEAR     29   6  37 N6        30.18R WCI  23
BRYCE CANYON   CLEAR     19   9  65 NW6       30.21S WCI  11
CEDAR CITY     CLEAR     24  14  65 NW6       30.23F WCI  17
DELTA          CLEAR     33  20  59 E5        30.27F WCI  28
MILFORD        CLEAR     27  19  72 NW3       30.26R
MOAB/CYNLANDS  CLEAR     34  12  40 NW12      30.12R WCI  25
PRICE          PTCLDY    29  12  49 NW7       30.13R WCI  22
ST GEORGE      MOCLDY    48  10  21 E9        30.23S
KANAB          CLEAR     34   3  27 CALM      30.25R

$$

REGIONAL REPORTS     COLORADO/ARIZONA

CITY           SKY/WX    TMP DP  RH WIND       PRES   REMARKS
CRAIG, CO      MOCLDY    24  14  65 W16       30.05R WCI  11
GRAND JUNCTION CLEAR     31  19  61 N9        30.08R WCI  23
RIFLE          MOCLDY    23  16  74 E7        30.08R WCI  15
MONTROSE       PTCLDY    27  17  66 W3        30.09R
CORTEZ         CLEAR     28  20  71 N5        30.09R WCI  23
PAGE, AZ       NOT AVBL
GRAND CANYON   PTCLDY    25  -8  23 NW5       30.20R WCI  19
KINGMAN        CLEAR     45   5  19 E7        30.21S
FLAGSTAFF      PTCLDY    27 -11  18 CALM      30.17R

$$

REGIONAL REPORTS    NEVADA/IDAHO/WYOMING

CITY           SKY/WX    TMP DP  RH WIND       PRES   REMARKS
LAS VEGAS, NV  PTCLDY    58   9  14 NW5       30.17S
ELY            MOCLDY    30  27  88 W12       30.27R WCI  20
ELKO           CLEAR     30  24  78 W7        30.27F WCI  23
POCATELLO, ID  CLOUDY    34  26  72 SW20      30.16F WCI  23
BURLEY         CLEAR     32  26  78 SW9       30.19F WCI  24
EVANSTON, WY   CLOUDY    23  18  81 SW16G22   30.13F WCI  10
ROCK SPRINGS   CLEAR     22  12  65 W24G36    30.04R WCI   5

$$


USA.gov is the U.S. government's official web portal to all federal, state and local government web resources and services.